Flag for U.S.A. Weather past 2 weeks in Warminster Township, Pennsylvania, U.S.A.

Now
71 °F

Overcast.


Feels Like: 73 °F
Forecast: 66 / 77 °F
Wind: No wind

Location: Doylestown Airport

Current Time: Aug 22, 2014 at 7:47:52 PM

Latest Report: Aug 22, 2014 at 6:54 PM


Visibility: 10 mi

Pressure: 29.99 "Hg

Humidity: 76%

Dew point: 63 °F

Location of Warminster TownshipLocation

Historic Weather in Warminster Township — Graph

°F

Warminster Township temperature yesterday

Maximum temperature yesterday: 80 °F (at 3:54 PM)
Minimum temperature yesterday: 65 °F (at 4:54 AM)
Average temperature yesterday: 73 °F

Past Weeks' High & Low Weather Summary

 TemperatureHumidityPressure
High84 °F (Aug 9, 2:54 PM)100% (Aug 13, 7:54 AM)30.14 "Hg (Aug 13, 7:54 AM)
Low51 °F (Aug 15, 5:54 AM)29% (Aug 9, 3:54 PM)29.68 "Hg (Aug 13, 3:54 PM)
Average69 °F70%29.96 "Hg
* Reported Aug 7 6:54 PM — Aug 22 6:54 PM, Warminster Township, Weather by CustomWeather, © 2014

Note: Actual official high and low records may vary slightly from our data, if they occured in-between our weather recording intervals... More about our weather records

Advertising

Warminster Township weather history for previous 24 hours

 ConditionsComfort  
Time TempWeatherWind HumidityBarometerVisibility
6:54 PM
Aug 22
71 °FOvercast.No wind76%29.99 "Hg10 mi
5:54 PM72 °FMostly cloudy.No wind76%29.99 "Hg10 mi
4:54 PM73 °FOvercast.No wind76%29.98 "Hg10 mi
3:54 PM73 °FOvercast.3 mph79%29.99 "Hg10 mi
3:03 PM73 °FMore clouds than sun.3 mph81%30.01 "Hg10 mi
2:54 PM73 °FMostly cloudy.3 mph81%30.00 "Hg10 mi
1:54 PM74 °FOvercast.6 mph79%30.01 "Hg10 mi
12:54 PM73 °FOvercast.No wind76%30.01 "Hg10 mi
11:54 AM72 °FMostly cloudy.3 mph84%30.01 "Hg10 mi
10:54 AM71 °FOvercast.3 mph87%30.02 "Hg10 mi
9:54 AM69 °FPartly sunny.No wind90%30.03 "Hg10 mi
8:54 AM66 °FLow clouds.No wind96%30.02 "Hg10 mi
8:03 AM65 °FLow clouds.No wind100%30.02 "Hg10 mi
7:54 AM65 °FLow clouds.No wind100%30.01 "Hg10 mi
6:54 AM65 °FLow clouds.No wind100%30.00 "Hg10 mi
5:54 AM65 °FLow clouds.No wind100%29.98 "Hg10 mi
4:54 AM65 °FLow clouds.5 mph100%29.98 "Hg10 mi
3:54 AM66 °FLight rain. Mostly cloudy.No wind100%29.97 "Hg10 mi
2:54 AM66 °FThundershowers. Mostly cloudy.No wind100%29.97 "Hg10 mi
2:01 AM66 °FLight rain. Mostly cloudy.No wind100%30.00 "Hg10 mi
12:54 AM66 °FLight rain. Mostly cloudy.6 mph100%30.00 "Hg8 mi
11:54 PM
Aug 21
66 °FThundershowers. Fog.3 mph100%30.00 "Hg6 mi
10:54 PM68 °FThunderstorms. Mostly cloudy.No wind100%30.00 "Hg10 mi
9:54 PM71 °FThunderstorms. Partly cloudy.5 mph84%30.00 "Hg7 mi
8:54 PM73 °FPassing clouds.6 mph76%29.99 "Hg10 mi
7:54 PM74 °FScattered clouds.7 mph76%29.98 "Hg10 mi
Weather by CustomWeather, © 2014

See weather overviewHow to use our weather pages